Location: Ecklingerode
(51.5036°N, 10.3122°E)
Time: 06:40:39
(UTC+00:00)

NOAA 12 - Pass Details

Date: 29 October 2020
Orbit: 795 x 815 km, 98.5° (Epoch: 01 December)

Event Time Altitude Azimuth Distance (km) Brightness Sun altitude
Rises 16:41:17 0° 167° (SSE) 3,314 7.3 -7.5°
Reaches altitude 10° 16:43:36 10° 168° (SSE) 2,390 6.6 -7.8°
Maximum altitude 16:48:54 79° 255° (WSW) 833 4.3 -8.7°
Drops below altitude 10° 16:54:17 10° 343° (NNW) 2,417 6.7 -9.5°
Sets 16:56:38 0° 345° (NNW) 3,354 7.4 -9.8°
